Date/Time (UTC),PHv2,PWv2,PTv2,PSv3,PHv3,PWv3,PTv3,MESH,VIL,CompRef,Ref -20C,Flash Rate,Max Flash Density,LJA sigma-level,Max 0-2km AzShear,LLAZ 98th%,MLAZ 98th%,MUCAPE,MLCAPE,CAPE -10C to -30C,MLCIN,SRH 0-1km AGL,EBShear,MeanWind 0-1km AGL,Norm. Sat. Growth Rate,ICP,PWAT,WBZ,AvgBeamHgt,STP(eff),DCAPE,ESRH,LLLR,MLLR
2023/04/29 19:58,1,4,0,17,5,11,1,0.41,23,53.0,48,18,0.25,0,2,2,2,3522,2723,606,0,41,54,25,0,93,2.1,11.5,6.21,0.2,887,34,7.7,7.1
2023/04/29 20:00,3,5,0,18,6,16,3,0.57,28,54.5,51,19,0.35,0,2,2,2,4264,2978,830,0,89,49,30,0,92,2.1,11.8,6.0,0.2,836,34,7.5,7.5
2023/04/29 20:02,3,5,0,21,6,17,3,0.57,28,54.5,50,19,0.35,0,3,2,2,4264,2978,830,0,89,49,30,0,92,2.1,11.8,6.0,0.2,836,34,7.5,7.5
2023/04/29 20:04,3,5,0,22,5,19,3,0.57,28,54.5,50,20,0.35,0,2,2,2,4215,2978,840,0,87,51,29,0,96,2.1,11.8,5.83,0.2,832,34,7.5,7.5
2023/04/29 20:06,6,12,0,24,10,20,3,0.72,32,54.5,53,20,0.35,0,2,2,3,4201,2978,840,0,86,51,29,0,94,2.1,11.8,5.76,0.2,828,34,7.5,7.5
2023/04/29 20:08,6,12,0,25,11,19,4,0.72,32,54.0,54,20,0.35,0,2,2,3,4170,3014,853,0,84,53,29,0,98,2.1,11.6,5.7,0.3,821,41,7.6,7.5
2023/04/29 20:10,6,12,0,26,9,21,3,0.72,32,55.5,52,20,0.35,0.1,2,2,3,4158,3014,855,0,83,53,28,0,96,2.1,11.6,5.63,0.3,820,41,7.6,7.5
2023/04/29 20:12,7,12,0,26,10,21,4,0.7,34,55.5,52,20,0.35,0,3,2,3,4158,3083,878,0,81,54,28,0,98,2.0,11.5,5.64,0.3,817,41,7.5,7.5
2023/04/29 20:14,7,38,0,28,12,24,4,0.75,38,55.5,53,20,0.35,0,4,3,3,4135,3083,878,0,80,55,28,0,97,2.0,11.5,5.58,0.3,817,41,7.5,7.5
2023/04/29 20:16,10,54,0,33,12,29,4,0.75,38,55.5,52,28,0.35,3.0,5,4,3,4131,3190,875,0,80,54,28,0,98,2.1,11.5,5.84,0.3,821,41,7.5,7.5
2023/04/29 20:18,13,58,0,35,17,31,7,0.77,38,55.0,54,28,0.35,-1,7,4,4,4127,3236,887,0,77,55,27,0,97,2.0,11.5,5.85,0.3,818,41,7.5,7.5
2023/04/29 20:20,17,66,1,39,16,35,7,0.77,36,56.5,52,35,0.35,1.8,7,5,4,4140,3253,892,0,74,55,27,0,98,2.0,11.5,5.96,0.3,816,41,7.5,7.5
2023/04/29 20:22,17,71,1,40,21,35,7,0.77,36,56.5,54,35,0.35,0,6,5,5,4140,3253,893,0,73,55,27,0,99,2.0,11.5,5.94,0.3,815,41,7.5,7.5
2023/04/29 20:24,14,69,1,40,18,37,7,0.75,36,56.5,54,35,0.35,0.1,6,5,4,4144,3278,899,0,69,56,26,0,99,2.0,11.5,5.92,0.3,810,41,7.4,7.5
2023/04/29 20:26,17,74,0,43,18,38,6,0.75,36,56.5,54,40,0.35,1.2,6,5,4,4148,3295,908,0,66,56,25,0,99,2.0,11.5,5.88,0.3,804,41,7.4,7.5
2023/04/29 20:28,17,62,0,41,17,37,5,0.7,33,56.5,53,40,0.35,-1,6,4,4,4156,3307,909,0,65,57,25,0,100,2.0,11.5,5.95,0.3,802,41,7.3,7.6
2023/04/29 20:30,28,68,0,42,24,35,5,0.85,36,55.5,55,40,0.35,0,6,4,4,4156,3318,909,0,65,57,25,0,99,2.0,11.5,5.91,0.3,802,42,7.3,7.6
2023/04/29 20:32,38,82,0,51,31,44,10,0.92,40,58.5,56,40,0.32,0.7,7,4,5,4156,3331,911,0,66,57,25,0,100,2.0,11.5,6.0,0.3,802,42,7.3,7.6
2023/04/29 20:34,73,85,1,65,55,44,12,1.54,57,61.0,60,28,0.32,0,8,5,4,4157,3343,914,0,67,57,24,0,99,2.0,11.5,6.05,0.3,798,42,7.3,7.6
2023/04/29 20:36,73,87,1,66,57,36,12,1.54,59,61.0,60,29,0.32,0.1,8,5,4,4156,3353,916,0,68,57,24,0,98,2.0,11.5,6.12,0.3,797,42,7.2,7.7
2023/04/29 20:38,76,89,1,68,59,46,11,1.54,59,61.5,60,32,0.32,0.5,8,6,5,4148,3354,919,0,70,58,24,0,98,2.0,11.5,6.19,0.5,797,59,7.2,7.7
2023/04/29 20:40,87,92,1,83,83,52,19,1.86,66,63.0,62,32,0.32,0,8,6,6,4142,3355,922,0,71,59,23,0,99,2.0,11.5,6.27,0.5,798,59,7.2,7.8
2023/04/29 20:42,87,92,1,84,84,44,17,1.86,68,64.5,61,32,0.34,0.7,9,6,7,4138,3355,923,0,72,59,23,0,99,2.0,11.5,6.32,0.5,798,59,7.1,7.8
2023/04/29 20:44,87,95,2,81,81,46,15,1.86,68,64.5,60,32,0.34,-5,9,7,7,4097,3369,939,0,72,59,23,0,95,2.0,11.5,6.51,0.5,806,59,7.2,7.8
2023/04/29 20:46,87,95,2,84,84,47,16,1.91,68,64.5,62,32,0.34,0,9,7,7,4097,3355,941,0,78,59,23,0,95,2.0,11.5,6.53,0.5,805,59,7.2,7.8
2023/04/29 20:48,87,95,2,83,83,47,17,1.91,69,62.5,62,32,0.34,0.8,9,7,6,4098,3351,941,0,80,60,23,0,95,2.0,11.5,6.56,0.5,805,59,7.1,7.8
2023/04/29 20:50,83,92,1,83,83,40,14,1.91,69,63.0,61,25,0.34,0,8,6,7,4098,3286,941,0,84,60,23,0,97,2.0,11.5,6.57,0.5,805,59,7.0,7.8
2023/04/29 20:52,72,95,2,80,80,40,13,1.86,69,63.0,60,25,0.34,0,8,6,6,4097,3278,944,0,87,60,23,0,95,2.1,11.5,6.61,0.5,805,59,6.9,7.8
2023/04/29 20:54,70,92,2,69,62,36,14,1.66,64,63.0,58,29,0.34,1.8,8,6,5,4095,3277,944,0,88,60,23,0,94,2.1,11.5,6.57,0.5,805,59,6.9,7.8
2023/04/29 20:56,61,92,2,60,54,33,12,1.54,61,61.5,57,29,0.34,0,8,6,4,4109,3242,944,0,91,60,23,0,96,2.1,11.5,6.6,0.5,805,59,6.8,7.8
2023/04/29 20:58,47,91,2,60,51,31,25,1.32,60,61.0,56,29,0.34,-1,7,6,5,3862,3258,892,0,166,71,33,0,90,2.1,11.6,6.63,0.5,800,59,6.3,8.0
2023/04/29 21:00,43,91,2,56,49,32,23,1.27,56,60.0,58,29,0.34,0.4,7,6,5,3807,3196,892,0,166,70,32,0,95,2.1,11.6,6.71,0.5,798,59,6.3,8.0
2023/04/29 21:02,43,91,2,55,48,29,23,1.27,54,60.0,58,28,0.34,0,7,6,4,3807,3196,892,0,166,70,32,0,97,2.1,11.6,6.71,0.5,798,59,6.3,8.0
2023/04/29 21:04,41,88,3,61,44,29,31,1.27,50,60.0,55,26,0.34,0,10,6,5,3813,3229,892,0,166,71,32,0,89,2.0,11.5,6.74,0.5,799,59,6.3,8.0
2023/04/29 21:06,41,88,3,60,39,30,29,1.27,50,60.0,54,26,0.34,1.1,10,6,5,3813,3196,893,0,166,70,32,0,93,2.0,11.5,6.78,0.5,801,59,6.2,8.0
2023/04/29 21:08,17,76,3,47,31,27,23,0.92,44,59.0,56,25,0.34,1.1,10,6,5,3813,3196,894,0,165,70,32,0,81,2.0,11.5,6.76,0.5,801,59,6.2,8.0
2023/04/29 21:10,12,81,8,53,31,32,32,0.82,42,59.0,56,25,0.34,0,12,7,7,3813,3195,905,0,165,70,32,0,91,2.0,11.5,6.8,0.5,798,59,6.2,8.0
2023/04/29 21:12,14,85,8,51,32,35,33,0.9,43,58.5,56,25,0.34,-2,12,7,6,3813,3196,902,0,165,70,32,0,87,2.0,11.5,6.79,0.5,798,59,6.2,8.0
2023/04/29 21:14,35,94,8,59,48,35,36,1.17,48,59.5,59,25,0.29,0,12,7,5,3844,3229,902,0,163,70,33,0,94,2.0,11.5,6.85,0.5,802,59,6.2,8.0
2023/04/29 21:16,32,88,7,59,44,33,35,1.17,48,60.0,58,24,0.29,0.2,12,7,5,3828,3229,902,0,163,70,32,0,93,2.0,11.5,6.89,0.5,803,59,6.2,8.0
2023/04/29 21:18,29,81,3,54,42,29,22,1.17,48,61.0,58,18,0.29,-1,7,6,5,3846,3250,902,0,155,70,33,0,89,2.0,11.5,6.92,0.5,804,59,6.2,8.0
2023/04/29 21:20,25,81,2,52,33,26,18,1.11,47,61.0,55,18,0.29,1.2,7,6,5,3846,3232,902,0,155,70,33,0,91,2.0,11.5,6.96,0.5,804,59,6.2,8.0
2023/04/29 21:22,22,81,2,45,31,25,15,1.06,44,61.0,56,19,0.29,0.3,7,6,5,3846,3229,905,0,156,70,32,0,91,2.0,11.5,6.96,0.5,804,59,6.2,8.0
2023/04/29 21:24,12,73,2,37,26,24,13,0.87,41,60.5,54,19,0.29,0,7,5,5,3813,3196,902,0,155,70,32,0,83,2.0,11.5,6.99,0.5,807,59,6.1,8.0
2023/04/29 21:26,15,76,1,37,27,23,14,0.87,41,60.5,54,25,0.35,3.3,7,5,5,3846,3196,907,0,156,70,32,0,81,2.0,11.5,7.02,0.5,804,59,6.1,8.0
2023/04/29 21:28,13,77,1,39,26,25,13,0.84,41,60.5,53,25,0.35,0,7,5,5,3846,3196,907,0,156,70,32,0,61,2.0,11.5,7.01,0.5,804,59,6.1,8.0
2023/04/29 21:30,11,71,1,33,24,23,12,0.77,40,60.5,53,25,0.35,0,6,4,4,3846,3194,907,0,156,70,32,0,52,2.0,11.5,7.04,0.5,804,59,6.1,8.0
2023/04/29 21:32,11,71,1,33,19,21,12,0.76,40,60.5,51,25,0.35,0,7,5,5,3846,3186,907,0,155,69,31,0,63,2.0,11.5,7.07,0.5,807,63,6.1,8.0
2023/04/29 21:34,9,67,1,30,17,20,11,0.76,38,59.0,52,24,0.35,0,7,5,5,3842,3186,907,0,155,69,31,0,45,2.0,11.5,7.08,0.5,808,63,6.1,8.0
2023/04/29 21:36,5,60,1,28,11,20,11,0.61,33,58.5,51,22,0.35,-1,7,5,5,3813,3186,907,0,155,69,31,0,75,2.0,11.5,7.11,0.5,808,63,6.1,8.0
2023/04/29 21:38,5,62,1,28,9,20,10,0.57,33,57.5,51,27,0.37,7.1,7,5,5,3875,3175,926,0,149,68,31,0,91,2.0,11.5,7.17,0.5,808,63,6.0,8.0
2023/04/29 21:40,6,64,1,28,11,20,10,0.65,32,57.5,53,27,0.37,0,7,5,5,3875,3171,929,0,149,67,30,0,89,2.0,11.5,7.19,0.5,804,63,6.0,8.0
2023/04/29 21:42,8,60,1,30,13,22,9,0.67,33,59.0,53,27,0.37,0,7,5,5,3878,3170,933,0,149,67,30,0,91,2.0,11.5,7.24,0.5,804,63,6.0,8.0
2023/04/29 21:44,8,60,1,30,13,21,9,0.67,36,59.0,52,27,0.37,0,6,4,5,3878,3170,933,0,149,67,30,0,44,2.0,11.5,7.25,0.5,804,63,6.0,8.0
2023/04/29 21:46,11,63,1,37,20,23,8,0.72,39,64.5,54,28,0.37,1.0,5,4,4,3929,3170,934,0,148,67,30,0,41,2.0,11.5,7.26,0.5,804,63,6.0,8.0
2023/04/29 21:48,11,71,1,38,20,23,7,0.72,39,64.5,53,28,0.37,0,5,4,4,3929,3170,935,0,149,66,30,0,78,2.0,11.5,7.25,0.5,803,63,6.0,8.0
2023/04/29 21:50,14,68,1,32,17,19,7,0.72,39,64.5,52,28,0.37,0,5,4,4,3955,3169,946,0,148,65,29,0,90,2.0,11.4,7.29,0.5,801,63,6.0,8.0
2023/04/29 21:52,14,68,1,27,12,17,7,0.71,38,59.5,51,28,0.37,-1,5,4,4,3955,3170,946,0,148,65,29,0,89,2.0,11.4,7.3,0.5,803,63,6.0,8.0
2023/04/29 21:54,8,60,1,27,9,19,7,0.63,37,59.5,50,27,0.37,0,5,4,4,3956,3170,947,0,147,65,29,0,88,2.0,11.4,7.3,0.5,801,63,6.0,8.0
2023/04/29 21:56,6,63,1,27,10,18,6,0.58,36,59.0,50,26,0.37,0.3,6,5,5,3956,3170,951,0,147,65,29,0,89,2.0,11.4,7.31,0.5,801,63,6.0,8.0
2023/04/29 21:58,4,54,1,25,8,17,7,0.57,30,57.5,52,19,0.37,-1,7,5,5,4033,3170,958,0,142,64,29,0,78,2.0,11.4,7.4,0.5,804,63,6.0,8.0
2023/04/29 22:00,7,54,1,27,11,24,7,0.7,32,58.0,54,19,0.37,0.7,7,5,5,4157,3221,1025,0,132,60,35,0,80,2.0,13.2,7.38,0.5,740,63,6.0,8.3
2023/04/29 22:02,21,77,1,37,22,25,10,1.02,44,58.0,58,19,0.37,0,6,5,6,4157,3221,1020,0,132,60,35,0,63,2.0,13.2,7.43,0.5,740,63,6.1,8.3
2023/04/29 22:04,27,76,1,41,27,23,12,1.11,44,58.5,58,20,0.37,2.0,6,5,5,4192,3193,1020,0,134,60,35,0,86,2.0,13.1,7.47,0.5,733,63,6.1,8.2
2023/04/29 22:06,29,78,2,45,29,24,14,1.11,44,58.5,56,20,0.37,-1,7,6,6,4251,3150,1025,0,135,60,34,0,92,2.0,13.1,7.53,0.5,731,63,6.1,8.2
2023/04/29 22:08,29,78,2,48,24,25,13,1.11,44,59.0,54,20,0.37,0.1,7,6,6,4261,3143,1025,0,135,61,34,0,48,2.0,13.0,7.53,0.5,726,63,6.1,8.2
2023/04/29 22:10,16,73,2,43,21,26,12,0.92,34,59.0,54,20,0.35,0.1,7,6,6,4262,3139,1025,0,135,61,34,0,82,2.0,13.0,7.58,0.5,726,63,6.1,8.2
2023/04/29 22:12,12,70,1,38,22,28,9,0.74,34,59.0,54,28,0.38,4.4,7,5,5,4296,3103,1032,0,135,61,34,0,84,2.0,12.9,7.59,0.5,724,65,6.2,8.2
2023/04/29 22:14,10,70,1,35,19,30,9,0.69,29,58.5,52,28,0.38,0,7,5,5,4332,3082,1032,0,135,62,34,0,69,2.0,12.8,7.65,0.5,724,65,6.2,8.2
2023/04/29 22:16,11,71,1,32,17,25,9,0.69,28,57.0,52,30,0.38,1.0,7,5,5,4335,3066,1032,0,137,62,34,0,67,2.0,12.7,7.69,0.5,722,65,6.2,8.2
2023/04/29 22:18,9,58,1,31,14,24,8,0.61,24,57.0,52,31,0.45,0.1,7,5,4,4346,3034,1033,0,136,62,34,0,9,2.0,12.7,7.73,0.5,722,65,6.2,8.2
2023/04/29 22:20,8,53,1,33,12,20,8,0.61,24,57.0,52,31,0.51,-1,7,5,4,4347,3031,1040,0,137,63,34,0,12,2.0,12.6,7.76,0.5,722,65,6.2,8.2
2023/04/29 22:22,6,49,1,31,8,21,8,0.6,24,57.0,50,31,0.51,0,6,4,4,4364,3017,1041,0,137,63,34,0,10,2.0,12.4,7.78,0.5,722,65,6.3,8.1
2023/04/29 22:24,5,38,1,27,7,21,8,0.51,22,56.5,49,31,0.51,-1,4,3,3,4364,3006,1041,0,135,63,34,0,4,2.0,12.4,7.83,0.5,724,65,6.3,8.1
2023/04/29 22:26,2,34,1,25,5,21,7,0.44,22,56.5,46,24,0.51,0,5,3,3,4364,2989,1041,0,134,64,34,0,4,2.0,12.2,7.91,0.5,724,65,6.3,8.1
2023/04/29 22:28,1,7,1,19,3,17,6,0.44,18,56.0,43,19,0.51,0,5,3,3,4367,2961,1040,0,134,63,34,0,0,2.0,12.2,8.01,0.5,725,65,6.3,8.1
2023/04/29 22:30,1,5,1,15,2,13,6,0.25,16,55.0,42,14,0.51,0,5,3,4,4367,2961,1040,0,134,63,34,0,0,2.0,12.2,8.02,0.5,725,65,6.3,8.1
2023/04/29 22:32,1,5,1,14,3,11,6,0.22,14,55.0,42,12,0.51,2.0,4,3,4,4367,3029,1042,0,137,64,34,0,0,2.0,12.4,7.72,0.5,718,65,6.3,8.1
2023/04/29 22:34,1,33,1,13,5,11,6,0.39,19,54.5,48,13,0.67,0.4,5,4,5,4397,3031,1041,0,138,63,34,0,0,2.0,12.6,7.71,0.5,716,65,6.3,8.1
2023/04/29 22:36,1,32,1,15,6,13,6,0.48,24,55.0,50,13,0.67,0,5,4,5,4406,3031,1041,0,138,63,34,0,0,2.0,12.6,7.7,0.5,716,65,6.3,8.1
2023/04/29 22:38,1,41,1,18,7,13,6,0.48,24,57.0,50,13,0.67,0.8,5,5,5,4406,3031,1041,0,138,63,34,0,2,2.0,12.6,7.64,0.5,716,65,6.3,8.2
2023/04/29 22:40,1,41,1,19,7,14,6,0.48,24,57.0,50,13,0.67,0.2,5,5,5,4406,3031,1043,0,140,64,34,0,3,2.0,12.5,7.65,0.5,715,65,6.3,8.2
2023/04/29 22:42,1,32,1,20,7,15,7,0.47,24,57.0,50,11,0.67,0,5,5,5,4406,3029,1046,0,141,64,34,0,5,2.0,12.4,7.64,0.5,712,65,6.3,8.2
2023/04/29 22:44,1,32,1,19,6,15,7,0.46,24,56.0,50,11,0.67,0.7,5,5,5,4406,3029,1046,0,141,64,34,0,16,2.0,12.4,7.64,0.5,712,65,6.3,8.2
2023/04/29 22:46,1,32,1,20,7,16,7,0.47,26,56.0,50,11,0.67,0,5,5,5,4367,3029,1050,0,141,64,34,0,29,2.0,12.4,7.58,0.6,712,70,6.3,8.2
2023/04/29 22:48,3,54,1,26,6,22,7,0.47,26,56.0,48,23,0.67,5.6,5,5,4,4346,3031,1046,0,138,64,34,0,7,2.0,12.4,7.55,0.5,718,65,6.3,8.2
2023/04/29 22:50,3,54,1,22,7,16,7,0.47,26,56.0,50,23,0.67,0,5,5,4,4332,3066,1046,0,138,63,34,0,4,2.0,12.6,7.48,0.5,720,65,6.2,8.2
2023/04/29 22:52,2,44,1,22,9,16,8,0.51,26,55.5,51,23,0.67,0.3,6,4,5,4332,3059,1046,0,139,64,34,0,6,2.1,12.4,7.47,0.5,718,65,6.3,8.2
2023/04/29 22:54,2,46,1,25,10,19,8,0.54,27,56.0,51,23,0.67,0,6,4,5,4296,3062,1050,0,140,64,34,0,15,2.1,12.4,7.43,0.5,718,65,6.3,8.2
2023/04/29 22:56,2,52,1,28,10,21,8,0.54,27,56.0,51,22,0.67,0,6,4,5,4261,3034,1050,0,141,64,34,0,14,2.1,12.2,7.41,0.6,716,70,6.3,8.2
2023/04/29 22:58,2,52,1,20,3,13,9,0.54,27,56.0,50,22,0.67,0.7,5,4,4,2971,2492,796,0,194,58,32,0,2,2.1,11.8,7.4,0.6,623,70,6.1,7.3
2023/04/29 23:00,3,54,1,23,4,16,11,0.52,27,55.0,52,28,0.67,2.3,5,4,4,2942,2481,825,0,179,59,33,0,53,2.1,11.8,7.51,0.6,619,70,6.3,7.3
2023/04/29 23:02,3,53,1,23,4,18,12,0.52,27,55.0,52,29,0.67,0.2,5,4,4,2942,2481,825,0,179,59,33,0,43,2.1,11.8,7.51,0.6,619,70,6.3,7.3
2023/04/29 23:04,3,54,1,24,6,21,14,0.52,27,54.5,51,29,0.67,0,7,4,5,2947,2502,862,0,155,61,34,0,84,2.1,11.7,7.84,0.6,615,70,6.6,7.2
2023/04/29 23:06,3,54,1,25,6,20,14,0.52,27,54.5,50,29,0.61,0.7,7,4,5,2947,2502,862,0,155,61,34,0,81,2.1,11.7,7.81,0.6,617,70,6.6,7.2
2023/04/29 23:08,2,55,1,25,5,20,15,0.49,26,54.5,50,29,0.61,0,7,4,4,2947,2476,844,0,160,60,34,0,74,2.1,11.7,7.72,0.6,617,70,6.5,7.2
2023/04/29 23:10,2,52,1,26,5,21,15,0.46,25,54.5,49,29,0.61,0.1,7,4,4,2947,2445,867,0,154,61,34,0,88,2.1,11.6,7.9,0.6,648,70,6.6,7.3
2023/04/29 23:12,2,40,1,20,5,19,11,0.41,19,53.5,48,29,0.61,0.7,5,4,4,2947,2445,867,0,154,61,34,0,97,2.1,11.6,7.9,0.6,648,70,6.6,7.3
2023/04/29 23:14,2,40,1,24,6,20,11,0.41,20,53.0,50,28,0.61,0,5,4,3,2969,2445,867,0,154,61,35,0,93,2.1,11.5,7.96,0.6,654,70,6.6,7.3
2023/04/29 23:16,2,40,1,22,6,20,11,0.41,20,53.0,50,28,0.61,-2,5,4,3,2947,2423,867,0,154,61,35,0,87,2.1,11.5,7.93,0.6,654,70,6.6,7.3
2023/04/29 23:18,2,26,1,23,5,20,10,0.41,20,54.0,48,28,0.61,0.6,5,3,3,2969,2423,867,0,154,61,35,0,25,2.1,11.5,7.96,0.6,657,70,6.6,7.4
2023/04/29 23:20,1,9,1,22,3,18,9,0.39,18,54.0,44,27,0.61,-3,3,2,3,2947,2423,862,0,155,60,35,0,15,2.1,11.5,7.89,0.6,657,70,6.6,7.3
2023/04/29 23:22,1,8,0,19,3,15,6,0.37,18,54.0,46,22,0.61,0,3,2,3,2937,2400,857,0,155,60,35,0,9,2.1,11.5,7.86,0.6,657,70,6.6,7.3
2023/04/29 23:24,1,6,0,21,3,15,6,0.26,18,53.5,45,22,0.61,0,3,2,2,2947,2399,862,0,155,60,35,0,1,2.1,11.5,7.9,0.6,695,70,6.6,7.4
2023/04/29 23:26,1,3,0,17,2,13,4,0.26,18,53.5,40,13,0.61,0,3,2,2,2969,2399,867,0,154,60,35,0,1,2.0,11.4,8.02,0.6,698,70,6.7,7.4
2023/04/29 23:28,1,2,0,11,1,7,4,0.21,14,53.5,39,9,0.61,0,2,2,1,2947,2395,862,0,155,60,35,0,0,2.1,11.5,7.88,0.6,695,70,6.6,7.4
2023/04/29 23:30,1,1,0,7,1,5,3,0.13,10,51.5,38,5,0.61,0,2,2,2,2853,2301,841,0,166,61,35,0,0,2.1,11.5,7.66,0.6,650,70,6.6,7.3
2023/04/29 23:32,1,1,0,6,1,4,3,0.13,10,51.5,36,4,0.61,0,2,2,2,2784,2278,816,0,166,60,35,0,0,2.1,11.5,7.62,0.6,650,70,6.6,7.3
2023/04/29 23:34,1,1,0,6,1,4,3,0.12,10,51.0,34,3,0.61,0,2,2,2,2849,2273,831,0,170,60,35,0,0,2.1,11.5,7.69,0.6,657,70,6.7,7.3
2023/04/29 23:36,1,1,0,5,1,4,3,0.12,10,51.0,36,1,0.61,0,2,2,2,2849,2213,831,0,170,60,36,0,0,2.1,11.5,7.68,0.6,657,70,6.7,7.3
2023/04/29 23:38,1,1,0,4,1,3,3,0.07,8,51.0,36,1,0.56,0,2,2,2,2774,2187,816,0,173,60,36,0,0,2.1,11.5,7.58,0.6,657,70,6.7,7.3
2023/04/29 23:40,1,1,0,4,1,4,3,0.06,8,51.0,37,1,0.56,0,2,2,1,2764,2162,814,0,175,60,36,0,0,2.1,11.5,7.56,0.6,657,70,6.7,7.3
2023/04/29 23:42,1,1,0,4,1,3,2,0.06,8,51.0,34,1,0.56,0,1,1,1,2724,2056,811,0,186,60,36,0,0,2.1,11.5,7.55,0.6,657,70,6.7,7.3
2023/04/29 23:44,1,1,0,3,1,3,1,0.07,8,48.5,36,1,0.51,0,1,1,1,2724,2056,811,0,186,60,36,0,0,2.1,11.5,7.55,0.6,657,70,6.7,7.3
2023/04/29 23:46,1,1,0,3,0,2,1,0.07,8,49.0,32,1,0.51,0,1,1,1,2724,2056,811,0,186,60,36,0,0,2.1,11.4,7.58,0.5,688,64,6.7,7.4
